User: anonymous   Login
Location: Unspecified
(0.0000°N, 0.0000°E)
Time: 19:04:14
(UTC+00:00)
Language:

AEROCUBE 6B - Orbit

View from above orbital plane
View from above orbital plane
View from above satellite
View from above satellite

Ground track
Ground track

The orbit data is extracted from the following two-line orbital elements,

1 40046U 14033AN  17084.68347309 +.00000433 +00000-0 +70810-4 0  9995
2 40046 097.8790 332.6422 0056895 197.1239 162.8052 14.74731731148176
Epoch (UTC): 25 March 2017 16:24:12
Eccentricity: 0.0056895
inclination: 97.8790°
perigee height: 606 km
apogee height: 686 km
right ascension of ascending node: 332.6422°
argument of perigee: 197.1239°
revolutions per day: 14.74731731
mean anomaly at epoch: 162.8052°
orbit number at epoch: 14817

The dashed part of the orbit path shows where the satellite is in the earth's shadow,  

DLR